Regional Weather Roundup
Issued by NWS Newport/Morehead, NC

Current Version | Previous Version | Graphics & Text | Print | Product List | Glossary Off
Versions: 1 2 3 4 5 6 7 8 9 10 11 12 13 14 15 16 17 18 19 20 21 22 23 24 25 26 27 28 29 30 31 32 33 34 35 36 37 38 39 40 41 42 43 44 45 46 47 48 49 50
000 ASUS42 KMHX 250325 RWRMHX WEATHER ROUNDUP FOR EASTERN NORTH CAROLINA NATIONAL WEATHER SERVICE NEWPORT/MOREHEAD CITY NC 1100 PM EDT WED AUG 24 2016 NOTE: "FAIR" INDICATES FEW OR NO CLOUDS BELOW 12,000 FEET WITH NO SIGNIFICANT WEATHER AND/OR OBSTRUCTIONS TO VISIBILITY NCZ015>017-031-032-045>047-102-103-250400- NORTH COAST CITY SKY/WX TMP DP RH WIND PRES REMARKS EDENTON PTCLDY 73 73 100 CALM 30.22S ELIZABETH CITY CLEAR 73 69 87 E5 30.22S KITTY HAWK CLEAR 74 70 89 CALM 30.21S MANTEO CLEAR 74 70 88 CALM 30.22S $$ NCZ045>047-081-094-103-104-250400- CENTRAL COAST CITY SKY/WX TMP DP RH WIND PRES REMARKS FRISCO CLEAR 75 67 76 E6 30.21S $$ NCZ095-097-098-100-101-250400- SOUTHERN COAST CITY SKY/WX TMP DP RH WIND PRES REMARKS BEAUFORT PTCLDY 75 73 93 CALM 30.20S CEDAR ISLAND NOT AVBL JACKSONVILLE CLOUDY 77 69 76 NE6 30.20R PINEY ISLAND NOT AVBL WILMINGTON CLOUDY 74 66 76 N3 30.19F $$ NCZ011>013-027>030-043-044-078>080-089-090>093-098-250400- COASTAL PLAIN CITY SKY/WX TMP DP RH WIND PRES REMARKS AHOSKIE CLEAR 66 65 94 CALM 30.22S CLINTON CLEAR 69 67 92 CALM 30.21S ELIZABETHTOWN CLEAR 71 64 79 CALM 30.20S GOLDSBORO PTCLDY 73 67 82 N1 30.19S GREENVILLE PTCLDY 72 66 83 SE5 30.21F HAVELOCK MOCLDY 75 71 87 CALM 30.21R KENANSVILLE NOT AVBL KINSTON PTCLDY 69 67 92 CALM 30.21S NEW BERN MOCLDY 76 71 85 CALM 30.22R RICHLANDS MOCLDY 71 66 84 NE5 30.21R ROCKY MOUNT CLEAR 68 66 93 CALM 30.21S WASHINGTON PTCLDY 71 67 87 CALM 30.21F WHITEVILLE CLEAR 70 66 88 CALM 30.19F $$ AMZ130-135-150-152-154-156-158-170-250-252-270-ANZ085-086-088-633-658-670-250400- MARINE OBSERVATIONS STATION/POSITION TIME TEMP WIND PRES WAVE SWELL AIR SEA DIR/SP/G HT/PER HT/PER (UTC) (F) (DEG/KT/KT) (MB) (FT/S) (FT/S) CHESAPEAKE LIGHT NOT AVBL 64 E VA BEACH 0250 78 81 110/ 8/ 10 1022.9 3/11 2/11 DUCK 0300 78 79 130/ 7/ 7 1022.4 2 E DUCK 0211 78 N/A 3/12 2/12 OREGON INLET 0300 77 79 110/ 4/ 7 1023.0 13E OREGON INLT 0300 79 N/A 3/ 5 3/ 5 HATTERAS CG 0300 77 80 80/ 5/ 6 1022.4 DIAMOND BUOY 0250 81 84 90/ 14/ 17 1022.6 3/11 2/11 CAPE LOOKOUT 0300 81 100/ 12/ 14 1022.2 BEAUFORT LAB 0300 76 80 50/ 3/ 5 1022.0 30 SE NEW RVR IN 0308 81 84 100/ 12/ 16 1022.0 30 SE NEW RVR IN 0225 84 N/A 3/ 5 27 SE WRIGHTSVLE 0308 82 84 110/ 10/ 12 1022.1 5 SE WRIGHTSVLE 0308 81 83 80/ 12/ 16 1023.0 225 S CAPE HAT 0250 82 85 70/ 17/ 21 1019.6 5/10 3/10 41 SE CHARLESTON 0250 82 84 60/ 14/ 16 1021.2 3/ 7 2/ 7 $$

USA.gov is the U.S. government's official web portal to all federal, state and local government web resources and services.